Weather reports worldwide

Advertisment
Tiree, United Kingdom (3100): temperature & dewpoint: 06.12.2019 16:00:00 - 12.12.2019 16:00:00 (GMT)Tiree, United Kingdom (3100): temperature -20cm & temperature -100cm: 06.12.2019 16:00:00 - 12.12.2019 16:00:00 (GMT)Tiree, United Kingdom (3100): wind speed & gusts: 06.12.2019 16:00:00 - 12.12.2019 16:00:00 (GMT)Tiree, United Kingdom (3100): wind direction: 06.12.2019 16:00:00 - 12.12.2019 16:00:00 (GMT)Tiree, United Kingdom (3100): reduced air pressure: 06.12.2019 16:00:00 - 12.12.2019 16:00:00 (GMT)Tiree, United Kingdom (3100): visibility: 06.12.2019 16:00:00 - 12.12.2019 16:00:00 (GMT)Tiree, United Kingdom (3100): sunshine duration: 06.12.2019 16:00:00 - 12.12.2019 16:00:00 (GMT)Tiree, United Kingdom (3100): precipitation: 06.12.2019 16:00:00 - 12.12.2019 16:00:00 (GMT)
Date & Time tt [°C] td [°C] tt -20cm [°C] tt -100cm [°C] ff [km/h] ff [kn] fx [km/h] fx [kn] dd ppp [hPa] vv [km] sd [min] rr [mm]
12.12.2019 16:00:00 6,6 5,6 - - 35 19 52 28 SE 973,9 10 0 0,4
12.12.2019 15:00:00 6,7 5,9 - - 37 20 46 25 SSE 975,2 6 0 1,2
12.12.2019 14:00:00 6,7 5,5 - - 37 20 46 25 SSE 976,7 4,5 0 0,0
12.12.2019 13:00:00 7,2 4,5 - - 29 16 - - S 978,1 30 0 0,0
12.12.2019 12:00:00 6,6 4,1 - - 28 15 - - S 979,4 29 0 0,0
12.12.2019 11:00:00 6,6 3,8 - - 28 15 - - S 980,7 35 0 0,0
12.12.2019 10:00:00 6,2 3,9 - - 26 14 - - S 981,7 10 0 0,0
12.12.2019 09:00:00 5,8 3,9 7,7 8,7 26 14 - - SSW 982,6 22 0 0,0
12.12.2019 08:00:00 4,5 3,6 - - 4 2 - - N 983,4 21 0 1,6
12.12.2019 07:00:00 4,2 3,2 - - 9 5 - - S 984,3 8 0 1,2
12.12.2019 06:00:00 3,6 2,1 - - 9 5 - - SSW 985,2 12 0 0,6
12.12.2019 05:00:00 4,9 2,6 - - 13 7 - - SW 985,9 21 0 0,0
12.12.2019 04:00:00 3,8 1,8 - - 15 8 - - WSW 986,7 18 0 0,0
12.12.2019 03:00:00 3,9 1,0 - - 21 11 - - WSW 987,5 35 0 0,2
12.12.2019 02:00:00 4,8 2,6 - - 26 14 - - WSW 988,3 17 0 0,0
12.12.2019 01:00:00 3,6 2,2 - - 26 14 54 29 SW 989,1 9 0 1,4
12.12.2019 00:00:00 3,1 1,2 - - 29 16 52 28 W 989,8 6 - 1,4
11.12.2019 23:00:00 4,3 0,9 - - 28 15 59 32 W 989,9 25 0 0,4
11.12.2019 22:00:00 5,8 1,9 - - 34 18 52 28 W 990,2 17 0 0,0
11.12.2019 21:00:00 5,0 0,8 - - 41 22 59 32 W 990,8 15 0 0,0
11.12.2019 20:00:00 6,5 0,7 - - 42 23 65 35 W 990,3 13 0 0,0
11.12.2019 19:00:00 6,9 1,8 - - 39 21 65 35 W 990,4 13 0 0,0
11.12.2019 18:00:00 5,7 1,9 - - 35 19 65 35 W 990,3 10 0 0,0
11.12.2019 17:00:00 6,0 1,6 - - 44 24 81 44 W 990,0 10 0 0,2
11.12.2019 16:00:00 6,6 0,4 - - 44 24 68 37 W 989,6 13 0 0,0
11.12.2019 15:00:00 6,9 1,2 - - 48 26 70 38 W 989,2 12 0 0,0
11.12.2019 14:00:00 6,6 2,3 - - 41 22 67 36 WSW 988,9 10 12 0,0
11.12.2019 13:00:00 6,7 1,5 - - 42 23 61 33 W 989,1 17 36 0,0
11.12.2019 12:00:00 6,4 1,3 - - 48 26 63 34 W 989,2 17 24 0,0
11.12.2019 11:00:00 6,7 1,8 - - 41 22 63 34 W 989,2 18 6 0,0
11.12.2019 10:00:00 5,8 1,9 - - 37 20 54 29 WSW 989,2 10 0 0,0
11.12.2019 09:00:00 4,7 1,8 8,0 8,7 35 19 61 33 WSW 989,0 10 0 0,8
11.12.2019 08:00:00 5,8 1,5 - - 46 25 61 33 W 988,9 21 0 0,0
11.12.2019 07:00:00 5,7 2,3 - - 39 21 76 41 W 988,5 18 0 0,4
11.12.2019 06:00:00 5,4 2,8 - - 35 19 72 39 WSW 988,6 14 0 0,2
11.12.2019 05:00:00 6,2 1,7 - - 50 27 68 37 WSW 988,9 21 0 0,2
11.12.2019 04:00:00 6,1 2,7 - - 44 24 65 35 WSW 989,6 19 0 0,0
11.12.2019 03:00:00 4,9 2,6 - - 48 26 72 39 SW 990,6 20 0 0,2
11.12.2019 02:00:00 6,2 2,2 - - 46 25 68 37 WSW 990,8 15 0 0,0
11.12.2019 01:00:00 5,9 2,5 - - 52 28 76 41 WSW 990,8 10 0 0,0
11.12.2019 00:00:00 6,7 1,4 - - 44 24 68 37 W 990,7 11 - 0,0
10.12.2019 23:00:00 5,5 2,3 - - 52 28 91 49 W 990,5 12 0 0,6
10.12.2019 22:00:00 6,3 3,0 - - 48 26 80 43 W 989,3 13 0 0,4
10.12.2019 21:00:00 6,2 2,7 - - 57 31 76 41 W 988,7 12 0 0,0
10.12.2019 20:00:00 6,4 3,3 - - 44 24 76 41 W 987,4 13 0 0,0
10.12.2019 19:00:00 7,0 2,4 - - 55 30 78 42 W 986,3 14 0 0,2
10.12.2019 18:00:00 6,5 4,3 - - 34 18 67 36 W 985,5 10 0 0,8
10.12.2019 17:00:00 6,9 3,0 - - 48 26 67 36 W 984,6 10 0 0,0
10.12.2019 16:00:00 7,0 2,9 - - 52 28 74 40 W 984,5 10 0 0,2
10.12.2019 15:00:00 5,7 4,2 - - 44 24 68 37 W 984,4 4,1 0 0,8
10.12.2019 14:00:00 6,7 5,4 - - 46 25 63 34 W 984,1 6 0 0,8
10.12.2019 13:00:00 7,5 6,3 - - 44 24 65 35 W 983,3 7 0 1,6
10.12.2019 12:00:00 8,3 7,4 - - 50 27 78 42 WNW 981,8 4,2 0 1,6
10.12.2019 11:00:00 11,3 10,7 - - 59 32 80 43 SSW 980,9 3,0 0 0,8
10.12.2019 10:00:00 10,9 10,2 - - 57 31 83 45 S 982,7 3,4 0 0,2
10.12.2019 09:00:00 10,7 9,7 8,0 8,7 63 34 93 50 S 984,3 3,2 0 0,4
10.12.2019 08:00:00 10,2 9,3 - - 68 37 91 49 S 986,2 4,6 0 1,2
10.12.2019 07:00:00 9,7 8,8 - - 68 37 91 49 S 988,2 4,0 0 1,0
10.12.2019 06:00:00 9,2 8,2 - - 68 37 93 50 S 991,3 4,9 0 1,4
10.12.2019 05:00:00 8,3 7,0 - - 72 39 94 51 S 994,0 2,5 0 1,2
10.12.2019 04:00:00 8,4 6,7 - - 65 35 85 46 S 996,9 8 0 0,0
10.12.2019 03:00:00 7,9 6,1 - - 65 35 83 45 S 999,9 8 0 0,2
10.12.2019 02:00:00 8,0 6,5 - - 61 33 81 44 S 1002,1 3,8 0 0,4
10.12.2019 01:00:00 8,5 6,2 - - 59 32 80 43 S 1004,8 11 0 0,0
10.12.2019 00:00:00 8,2 5,8 - - 54 29 70 38 S 1007,3 14 - 0,0
09.12.2019 23:00:00 8,4 6,2 - - 48 26 65 35 S 1008,6 14 0 0,0
09.12.2019 22:00:00 8,3 7,0 - - 41 22 57 31 SSW 1010,8 12 0 0,0
09.12.2019 21:00:00 8,3 7,5 - - 39 21 59 32 SSW 1012,4 3,6 0 0,4
09.12.2019 20:00:00 8,7 7,4 - - 29 16 48 26 SSW 1013,0 3,0 0 0,2
09.12.2019 19:00:00 8,0 6,6 - - 29 16 - - SW 1013,8 14 0 0,0
09.12.2019 18:00:00 7,6 6,4 - - 28 15 - - SW 1014,7 5 0 0,0
09.12.2019 17:00:00 8,0 4,6 - - 24 13 - - SW 1015,1 10 0 0,0
09.12.2019 16:00:00 6,9 3,1 - - 11 6 - - SSW 1015,1 10 0 0,0
09.12.2019 15:00:00 6,3 2,0 - - 8 4 - - WSW 1015,5 14 6 0,0
09.12.2019 14:00:00 6,6 0,9 - - 9 5 - - W 1015,3 17 24 0,0
09.12.2019 13:00:00 7,5 0,0 - - 16 9 - - WNW 1015,7 22 42 0,0
09.12.2019 12:00:00 7,4 1,6 - - 16 9 - - NW 1015,4 15 18 0,0
09.12.2019 11:00:00 7,0 1,5 - - 21 11 - - NNW 1014,9 20 0 0,0
09.12.2019 10:00:00 6,7 0,9 - - 26 14 - - N 1013,8 17 0 0,0
09.12.2019 09:00:00 5,9 0,3 8,2 8,7 29 16 - - NNW 1012,5 10 0 0,0
09.12.2019 08:00:00 5,8 1,1 - - 35 19 52 28 N 1010,7 18 0 0,0
09.12.2019 07:00:00 6,1 1,3 - - 42 23 59 32 N 1009,1 20 0 0,0
09.12.2019 06:00:00 5,7 2,2 - - 41 22 80 43 NNW 1007,0 15 0 0,2
09.12.2019 05:00:00 7,6 2,0 - - 46 25 65 35 NNW 1004,4 12 0 0,0
09.12.2019 04:00:00 7,4 2,6 - - 44 24 70 38 N 1002,3 10 0 0,0
09.12.2019 03:00:00 7,3 1,9 - - 48 26 74 40 N 1000,1 13 0 0,0
09.12.2019 02:00:00 7,3 2,8 - - 57 31 78 42 N 997,4 11 0 0,0
09.12.2019 01:00:00 7,4 4,3 - - 55 30 81 44 N 994,4 10 0 0,0
09.12.2019 00:00:00 7,6 4,2 - - 52 28 70 38 N 990,8 13 - 0,0
08.12.2019 23:00:00 7,6 4,1 - - 50 27 68 37 N 987,1 20 0 0,0
08.12.2019 22:00:00 7,5 4,8 - - 42 23 54 29 N 983,1 23 0 0,0
08.12.2019 21:00:00 6,3 4,8 - - 24 13 - - N 980,0 23 0 0,4
08.12.2019 20:00:00 5,8 4,7 - - 8 4 - - NW 977,2 16 0 0,2
08.12.2019 19:00:00 5,4 3,8 - - 21 11 54 29 W 976,0 9 0 1,2
08.12.2019 18:00:00 6,8 4,2 - - 42 23 65 35 W 975,4 15 0 0,4
08.12.2019 17:00:00 6,6 3,8 - - 39 21 59 32 W 974,9 15 0 0,0
08.12.2019 16:00:00 6,5 4,5 - - 37 20 68 37 W 974,9 17 0 0,2
08.12.2019 15:00:00 7,3 3,9 - - 42 23 70 38 W 974,8 10 0 0,0
08.12.2019 14:00:00 8,5 5,2 - - 54 29 78 42 W 975,3 12 12 0,2
08.12.2019 13:00:00 8,7 3,4 - - 61 33 83 45 W 975,9 12 6 0,0
08.12.2019 12:00:00 8,4 4,7 - - 57 31 80 43 WSW 976,6 10 0 0,0
08.12.2019 11:00:00 8,0 4,7 - - 52 28 87 47 W 977,3 11 0 0,0
08.12.2019 10:00:00 6,8 4,2 - - 39 21 83 45 WSW 978,3 15 0 0,2
08.12.2019 09:00:00 6,5 3,0 8,2 8,7 46 25 78 42 WSW 979,2 23 0 0,4
08.12.2019 08:00:00 5,5 3,3 - - 50 27 94 51 WSW 980,2 6 0 0,2
08.12.2019 07:00:00 7,3 4,1 - - 46 25 70 38 W 980,7 14 0 0,2
08.12.2019 06:00:00 7,3 4,2 - - 44 24 81 44 W 981,2 10 0 0,2
08.12.2019 05:00:00 5,9 3,5 - - 59 32 83 45 W 982,0 7 0 0,6
08.12.2019 04:00:00 7,6 4,2 - - 52 28 80 43 W 982,3 11 0 0,0
08.12.2019 03:00:00 8,5 3,6 - - 48 26 70 38 W 982,7 13 0 0,0
08.12.2019 02:00:00 8,7 4,9 - - 42 23 80 43 W 982,8 12 0 0,0
08.12.2019 01:00:00 9,0 5,3 - - 44 24 72 39 W 982,6 11 0 0,0
08.12.2019 00:00:00 9,2 7,5 - - 46 25 65 35 W 981,8 8 - 0,4
07.12.2019 23:00:00 9,5 8,2 - - 48 26 80 43 W 981,0 7 0 1,6
07.12.2019 22:00:00 11,0 10,6 - - 48 26 68 37 SW 980,8 3,1 0 1,2
07.12.2019 21:00:00 11,0 10,5 - - 52 28 72 39 SW 982,2 3,2 0 1,4
07.12.2019 20:00:00 10,8 10,4 - - 48 26 68 37 SSW 984,1 3,0 0 3,6
07.12.2019 19:00:00 10,7 10,2 - - 46 25 63 34 SSW 986,0 2,5 0 3,2
07.12.2019 18:00:00 11,0 10,4 - - 46 25 72 39 SSW 988,4 3,9 0 1,8
07.12.2019 17:00:00 11,0 10,4 - - 50 27 70 38 SW 990,5 4,6 0 2,2
07.12.2019 16:00:00 11,1 10,3 - - 48 26 76 41 SW 992,3 6 0 0,0
07.12.2019 15:00:00 11,0 10,5 - - 48 26 65 35 SW 993,5 7 0 0,2
07.12.2019 14:00:00 10,8 10,5 - - 44 24 65 35 SW 994,9 3,3 0 3,6
07.12.2019 13:00:00 10,5 10,2 - - 41 22 54 29 SW 997,0 3,8 0 4,4
07.12.2019 12:00:00 10,1 9,8 - - 37 20 50 27 SSW 998,5 5 0 3,6
07.12.2019 11:00:00 9,9 9,6 - - 31 17 46 25 SSW 999,9 2,3 0 0,2
07.12.2019 10:00:00 9,7 9,3 - - 26 14 - - SSW 1001,1 1,8 0 0,0
07.12.2019 09:00:00 9,4 8,7 8,0 8,7 26 14 - - SW 1002,3 9 0 0,0
07.12.2019 08:00:00 9,1 8,1 - - 18 10 - - WSW 1002,7 21 0 0,0
07.12.2019 07:00:00 8,3 7,6 - - 18 10 - - WSW 1003,4 21 0 0,0
07.12.2019 06:00:00 8,5 7,8 - - 18 10 - - W 1003,9 22 0 0,2
07.12.2019 05:00:00 8,0 7,4 - - 22 12 - - W 1003,9 27 0 0,0
07.12.2019 04:00:00 7,9 7,3 - - 21 11 - - W 1004,0 30 0 0,0
07.12.2019 03:00:00 8,1 7,3 - - 16 9 - - W 1003,9 26 0 0,0
07.12.2019 02:00:00 7,5 6,5 - - 18 10 - - W 1003,5 27 0 0,0
07.12.2019 01:00:00 7,4 6,5 - - 15 8 - - WNW 1003,2 50 0 0,2
07.12.2019 00:00:00 7,6 6,9 - - 16 9 65 35 NW 1002,7 45 - 0,0
06.12.2019 23:00:00 8,2 7,3 - - 18 10 - - WNW 1002,0 24 0 0,0
06.12.2019 22:00:00 7,6 6,8 - - 15 8 - - WNW 1001,3 25 0 0,0
06.12.2019 21:00:00 7,7 6,8 - - 16 9 - - NW 1000,9 20 0 0,0
06.12.2019 20:00:00 8,7 7,6 - - 18 10 - - WNW 1000,5 13 0 0,0
06.12.2019 19:00:00 8,4 6,9 - - 26 14 - - WNW 999,8 16 0 0,2
06.12.2019 18:00:00 8,4 7,5 - - 31 17 52 28 WNW 999,1 10 0 0,4
06.12.2019 17:00:00 8,9 7,5 - - 26 14 52 28 WNW 998,0 10 0 0,0
06.12.2019 16:00:00 8,7 7,1 - - 31 17 - - WNW 996,6 15 0 0,0

tt = temperature
td = dewpoint
tt -20cm = temperature -20cm
tt -100cm = temperature -100cm
ff = wind speed
fx = gusts
dd = wind direction
ppp = reduced air pressure
vv = visibility
sd = sunshine duration
rr = precipitation

Next stations